FENGYUN 1C DEB

Satellite information

Favourite Embed

Satellite Type and Status

DEBRISIN ORBIT

Key statistics

Satellite FENGYUN 1C DEB at a glance.

Uptime

9615

Days in orbit

Revolutions

≈ 14.2

Per day

Orbit

SSO

Sun Synchronous Orbit

Inclination

98.6

Latest

Satellite identification and parameters

Extended collection of information and parameters for FENGYUN 1C DEB.

Object identification

Identified? True

Debris? True

Object name: FENGYUN 1C DEB

International designator: 1999-025EHF

Object number (NORAD): 37437

Object ID (CCSDS): 37437

Country: PEOPLES REPUBLIC OF CHINA (PRC)

Current information (Y/N): Y

RCS size: SMALL

Orbital parameters

Period: 101.512 minutes

Inclination: 98.5795 deg

SMA: 7208.394 km

Apoapsis: 911.432 km

Periapsis: 749.086 km

RAAN: 239.3878 deg

Eccentricy: 0.01126088

Argument of periapsis: 345.0189 deg

Mean anomaly: 30.442 deg

Mean motion: 14.18551134 rev/day

Mean motion (dot): 0.00002259 rev/day2

B* drag term: 0.0010446056 1/REarth

Two-line elements (TLE)

Creation date: Sept. 1, 2025, 10:16 a.m.

Reference frame: TEME

Reference center: EARTH

Epoch: Sept. 1, 2025, 6:09 a.m. UTC

TLE line 0: 0 FENGYUN 1C DEB

TLE line 1: 1 37437U 99025EHF 25244.25656633 .00002259 00000-0 10446-2 0 9997

TLE line 2: 2 37437 98.5795 239.3878 0112609 345.0189 30.4420 14.18551134625388

Live tracking on map

Real-time ground track for satellite FENGYUN 1C DEB.

In-orbit conjunctions

A list of the most updated potential collisions computed for object FENGYUN 1C DEB.

Target Orbit TCA Probability of collision Miss distance Type
COSMOS 1275 DEB LEO 2025-04-30 02:52:50 0.0002250335 75.0 (m) DEBRIS
CZ-6A DEB LEO 2024-11-27 19:01:25 0.0001333456 260.0 (m) DEBRIS
METEOR 2-17 DEB LEO 2024-09-24 07:50:14 0.000166483 543.0 (m) DEBRIS

Associated space launch

Chinese polar orbiting meteorological satellite

FENGYUN 1C DEB was lifted into orbit during the mission ‘Long March 4B | Feng Yun 1C’, on board a Long March 4B space rocket.

The launch took place on May 10, 1999, 1:33 a.m. from Launch Complex 7.

For more information about the launch, click the button.

Launch to space Long March 4B | Feng Yun 1C
Long March 4B | Feng Yun 1C

Agency: N/A

Status: Launch Successful

Launch date: May 10, 1999, 1:33 a.m. UTC

Rocket: Long March 4B

Launch pad: Launch Complex 7

Location: Taiyuan Satellite Launch Center, People's Republic of China

...

Latest news about this satellite

There are no fresh news available about this satellite. Check back as we update our databases every day.


Newsletter sign-up

Weekly statistics, charts and insights to help you stay on top of the space industry.